Location: Bishop's University Astronomical Observatory
(45.3661°N, 71.8475°W)
Time: 15:00:52
(UTC-04:00)

CZ-4C R/B - Visible Passes

Search period start: 26 September 2016 00:00
Search period end: 06 October 2016 00:00
Orbit: 735 x 1268 km, 63.4° (Epoch: 25 September)

Date Brightness Start Highest point End Pass type
(mag) Time Alt. Az. Time Alt. Az. Time Alt. Az.
26 Sep 4.7 00:29:10 10° NNW 00:33:45 21° NNE 00:33:45 21° NNE visible
26 Sep 4.7 02:17:24 10° NNW 02:32:09 - ESE 02:18:50 17° NNW visible
26 Sep 4.3 04:17:36 21° S 04:17:36 21° S 04:20:01 10° S visible
26 Sep 2.9 19:31:10 10° SW 19:36:30 57° NW 19:42:35 10° NNE visible
26 Sep 4.6 21:22:17 10° WNW 21:26:30 20° NNW 21:31:08 10° NNE visible
26 Sep 4.9 23:13:51 10° NNW 23:17:44 16° N 23:20:04 14° NNE visible
27 Sep 4.7 01:02:40 10° NNW 01:05:11 21° N 01:05:11 21° N visible
27 Sep5.203:07:59SE03:07:59SE02:50:18NWvisible
27 Sep 3.9 20:05:31 10° W 20:10:30 32° NW 20:16:07 10° NNE visible
27 Sep 4.9 21:57:30 10° NW 22:01:12 16° N 22:05:11 10° NNE visible
27 Sep 4.7 23:47:46 10° NNW 23:51:50 20° NNE 23:51:50 20° NNE visible
28 Sep 5.0 01:36:03 10° NNW 01:36:58 14° NNW 01:36:58 14° NNW visible
28 Sep 4.5 20:40:29 10° WNW 20:44:52 21° NNW 20:49:42 10° NNE visible
28 Sep 4.9 22:32:16 10° NNW 22:36:01 16° N 22:38:38 13° NNE visible
29 Sep 4.8 00:21:18 10° NNW 00:23:47 20° N 00:23:47 20° N visible
29 Sep 3.7 19:23:52 10° WSW 19:28:58 37° NW 19:34:44 10° NNE visible
29 Sep 4.8 21:15:42 10° NW 21:19:30 17° N 21:23:36 10° NNE visible
29 Sep 4.7 23:06:19 10° NNW 23:10:41 19° NNE 23:10:41 19° NNE visible
30 Sep 5.0 00:54:42 10° NNW 00:55:50 15° NNW 00:55:50 15° NNW visible
30 Sep 4.4 19:58:41 10° WNW 20:03:15 23° NNW 20:08:17 10° NNE visible
30 Sep 4.8 21:50:38 10° NW 21:54:18 16° N 21:57:40 11° NNE visible
30 Sep 4.7 23:39:56 10° NNW 23:42:49 20° N 23:42:49 20° N visible
01 Oct 4.7 20:33:53 10° NW 20:37:49 18° NNW 20:42:04 10° NNE visible
01 Oct 4.7 22:24:52 10° NNW 22:29:06 18° NNE 22:29:49 17° NNE visible
02 Oct 4.9 00:13:21 10° NNW 00:14:59 18° NNW 00:14:59 18° NNW visible
02 Oct 4.2 19:16:56 10° W 19:21:38 26° NNW 19:26:53 10° NNE visible
02 Oct 4.8 21:08:56 10° NW 21:12:35 16° N 21:16:29 10° NE visible
02 Oct 4.6 22:58:33 10° NNW 23:02:02 21° N 23:02:02 21° N visible
03 Oct 5.2 00:46:46 10° NW 00:47:11 12° NNW 00:47:11 12° NNW visible
03 Oct 4.6 19:52:03 10° WNW 19:56:08 19° NNW 20:00:35 10° NNE visible
03 Oct 4.7 21:43:22 10° NNW 21:47:23 17° N 21:49:07 15° NNE visible
03 Oct 4.8 23:32:01 10° NNW 23:34:16 20° NNW 23:34:16 20° NNW visible
04 Oct 4.7 20:27:13 10° NW 20:30:52 16° N 20:34:47 10° NNE visible
04 Oct 4.5 22:17:10 10° NNW 22:21:23 21° NNE 22:21:23 21° NNE visible
05 Oct 5.0 00:05:24 10° NNW 00:06:32 16° NNW 00:06:32 16° NNW visible
05 Oct 4.5 19:10:14 10° WNW 19:14:29 20° NNW 19:19:07 10° NNE visible
05 Oct 4.7 21:01:49 10° NNW 21:05:41 16° N 21:08:30 13° NE visible
05 Oct 4.5 22:50:39 10° NNW 22:53:40 23° N 22:53:40 23° N visible
